Regional Weather Roundup
Issued by NWS New Orleans/Baton Rouge, LA

Home | Current Version | Previous Version | Text Only | Print | Product List | Glossary On
Versions: 1 2 3 4 5 6 7 8 9 10 11 12 13 14 15 16 17 18 19 20 21 22 23 24 25 26 27 28 29 30 31 32 33 34 35 36 37 38 39 40 41 42 43 44 45 46 47 48 49 50
433
ASUS44 KLIX 112312
RWRLIX
NEW ORLEANS REGIONAL WEATHER ROUNDUP
NATIONAL WEATHER SERVICE NEW ORLEANS LA
500 PM CST MON DEC 11 2017

NOTE: "FAIR" INDICATES FEW OR NO CLOUDS BELOW 12,000 FEET WITH NO
      SIGNIFICANT WEATHER AND/OR OBSTRUCTIONS TO VISIBILITY.
      SKY/WX - SKY CONDITION AND SIGNIFICANT WEATHER.
      TMP - AIR TEMPERATURE.     DP    - DEWPOINT TEMPERATURE.
      RH  - RELATIVE HUMIDITY.   PRES  - PRESSURE.
      HI  - HEAT INDEX.          WCI   - WIND CHILL INDEX.

*  THESE STATIONS ARE NOT NWS OR FAA STATIONS AND ARE NOT UNDER
   NWS QUALITY CONTROL.

LAZ038-040-048-061>063-065>067-069-120000-
SOUTHEAST LOUISIANA

CITY           SKY/WX    TMP DP  RH WIND       PRES   REMARKS
N.O. INTL ARPT MOCLDY    64  39  39 SW8       30.14F
N.O. LAKEFRONT CLEAR     60  45  57 SW10      30.14F
N.O. DOWNTOWN*   N/A     64  43  46 S7        30.15F
RESERVE*         N/A     63  41  44 W7        30.15F
SLIDELL        CLEAR     62  40  44 SW3       30.13F
BATON ROUGE    CLEAR     63  37  38 SW8       30.13S
BOOTHVILLE     CLEAR     58  48  69 W8        30.19S
BELLE CHASSE   MOCLDY    57  48  72 SW9       30.15S
BOGALUSA*      NOT AVBL
GALLIANO*      CLEAR     56  46  68 SW8       30.18S
NEW ROADS*       N/A     64  38  39 SW6       30.13S
GONZALES*        N/A     64  44  48 SW6       30.14S
HAMMOND*       CLEAR     63  39  42 S7        30.13S
HOUMA*         CLEAR     59  43  55 SW6       30.17F
PORT FOURCHON* CLEAR     59  45  58 W8        30.19F

$$

MSZ070-080>082-120000-
SOUTHERN MISSISSIPPI

CITY           SKY/WX    TMP DP  RH WIND       PRES   REMARKS
MCCOMB         CLEAR     60  37  42 SW6       30.11S
GULFPORT       CLEAR     60  41  49 SW5       30.12F
BILOXI         CLEAR     53  47  81 SW8       30.12F
PASCAGOULA     CLEAR     55  45  68 SW3       30.13F
STENNIS ARPT*  CLEAR     55  43  62 CALM      30.13F

$$

COASTAL OBSERVATIONS
LAKE AND NEARSHORE STATIONS

STATION/POSITION TIME  TEMP    WIND        PRES    WAVE
                       AIR SEA DIR/SP/G            HT/PER
                 (UTC) (F)     (DEG/KT/KT) (MB)    (FT/S)
PASCAGOULA       2242   56     240/  9/ 12 1020.0
WAVELAND YACHT   2242   60 52  210/  4/  5 1020.3
GRAND ISLE       2242   58 55  260/ 10/ 13 1022.1
SOUTHWEST PASS   2242   61 58  270/ 14/ 16 1022.9
NEW CANAL        2242   66 56  230/  5/  7 1020.5
SHELL BEACH      2242   59 54  210/ 12/ 14 1021.0

OFFSHORE STATIONS

STATION/POSITION TIME  TEMP    WIND        PRES    WAVE
                       AIR SEA DIR/SP/G            HT/PER
                 (UTC) (F)     (DEG/KT/KT) (MB)    (FT/S)
64 S DAUPHIN ISL 2250   62 74  250/ 12/ 16 1021.8    2/ 3

$$





USA.gov is the U.S. government's official web portal to all federal, state and local government web resources and services.